sat.trackr.live / text

‹ back to catalog

NINGXIA-1 6

NORAD 49018 · 2021-064A

PAYLOAD ACTIVE UNKNOWN

§ Identity

Operator
Country
PRC
Launch date
2021-07-09
Launch site
TAISC
Launch vehicle
Mass (kg)
RCS (m²)

External: N2YO · Heavens-Above · Gunter

§ Orbital elements

Epoch: 2026-09-04T05:13:42.391200Z

Period
102.23 min
Inclination
44.9986°
Eccentricity
0.0009160
Mean motion
14.08542115 rev/d
Perigee alt
857.7 km
Apogee alt
871.0 km
Semi-major
7,242.5 km
B*
2.2455e-5
RAAN
230.0562°
Arg perigee
252.5961°
Mean anomaly
107.3874°
Rev number
26,535

§ Raw data

NINGXIA-1 61 49018U 21064A   26247.21785175 -.00000093  00000+0  22455-4 0  99962 49018  44.9986 230.0562 0009160 252.5961 107.3874 14.08542115265350

JSON: /api/v1/satellites/49018 · /tle

For live sub-satellite position, see the globe view (requires WebGL).

§ Visibility from observer

Set your observer location to see the next 7 days of passes ≥ 10°. The values pass through the URL so the page stays shareable.

No JS? Fill the form by hand. The geolocation button needs JavaScript.